GLD166 SEQM-SKBO

Flight info

Callsign GLD166
Flight time 1h 13m
Altitude 36000
Route DCT ARNOK UP533 BOKAN DCT ESARO DCT GIR GIR5E
Aircraft A320/M-SDFGIRY/S

Departure

Time 2026-04-30 17:55
Airport Mariscal Sucre International Airport (SEQM)

Arrival

Time 2026-04-30 19:08
Airport El Dorado International Airport (SKBO)
Time Latitude Longitude Altitude Speed Heading
2026-04-30 17:47 -0.12376 -78.35928 7841 ft 0 kts 270°
2026-04-30 17:48 -0.12377 -78.35904 7838 ft 3 kts 270°
2026-04-30 17:48 -0.12362 -78.35856 7833 ft 3 kts 199°
2026-04-30 17:49 -0.12332 -78.35857 7831 ft 0 kts 162°
2026-04-30 17:50 -0.12361 -78.35781 7836 ft 7 kts 81°
2026-04-30 17:51 -0.12260 -78.35625 7841 ft 14 kts
2026-04-30 17:52 -0.11815 -78.35639 7821 ft 29 kts 356°
2026-04-30 17:53 -0.10678 -78.35686 7785 ft 18 kts
2026-04-30 17:54 -0.10863 -78.35511 7795 ft 79 kts 178°
2026-04-30 17:55 -0.15480 -78.35424 10301 ft 185 kts 174°
2026-04-30 17:56 -0.21837 -78.34892 11299 ft 273 kts 173°
2026-04-30 17:57 -0.28291 -78.34466 12476 ft 346 kts 174°
2026-04-30 17:58 -0.34895 -78.36066 13023 ft 414 kts 221°
2026-04-30 17:59 -0.35354 -78.46944 15611 ft 441 kts 311°
2026-04-30 18:00 -0.23926 -78.50428 18272 ft 445 kts 356°
2026-04-30 18:00 -0.14561 -78.51358 19823 ft 455 kts 356°
2026-04-30 18:01 -0.08450 -78.50182 20767 ft 454 kts 30°
2026-04-30 18:02 0.00345 -78.46621 22131 ft 466 kts 13°
2026-04-30 18:02 0.08915 -78.42193 23271 ft 469 kts 38°
2026-04-30 18:03 0.16554 -78.35998 24165 ft 475 kts 40°
2026-04-30 18:04 0.24485 -78.29938 24871 ft 482 kts 38°
2026-04-30 18:05 0.35398 -78.21941 25710 ft 491 kts 37°
2026-04-30 18:06 0.46442 -78.13698 26586 ft 495 kts 38°
2026-04-30 18:07 0.57500 -78.05455 27660 ft 497 kts 37°
2026-04-30 18:08 0.65840 -77.99253 28555 ft 499 kts 37°
2026-04-30 18:09 0.77026 -77.90928 30008 ft 503 kts 36°
2026-04-30 18:10 0.87977 -77.82218 31517 ft 502 kts 40°
2026-04-30 18:11 0.98406 -77.73083 33295 ft 494 kts 39°
2026-04-30 18:11 1.06225 -77.66476 34617 ft 488 kts 38°
2026-04-30 18:12 1.13966 -77.59910 35822 ft 486 kts 38°
2026-04-30 18:13 1.19115 -77.55514 36025 ft 487 kts 38°
2026-04-30 18:14 1.32030 -77.44505 36079 ft 487 kts 38°
2026-04-30 18:15 1.47512 -77.31327 36105 ft 487 kts 38°
2026-04-30 18:16 1.57839 -77.22513 36059 ft 489 kts 38°
2026-04-30 18:17 1.63021 -77.18110 36028 ft 489 kts 38°
2026-04-30 18:18 1.70784 -77.11497 35986 ft 489 kts 38°
2026-04-30 18:18 1.75959 -77.07084 35988 ft 489 kts 38°
2026-04-30 18:19 1.81138 -77.02677 35992 ft 489 kts 38°
2026-04-30 18:19 1.86313 -76.98274 35994 ft 489 kts 38°
2026-04-30 18:20 1.91489 -76.93863 35999 ft 489 kts 38°
2026-04-30 18:20 1.96664 -76.89447 36004 ft 490 kts 38°
2026-04-30 18:21 2.01852 -76.85030 36018 ft 490 kts 38°
2026-04-30 18:21 2.07050 -76.80608 36027 ft 491 kts 38°
2026-04-30 18:22 2.12245 -76.76174 36039 ft 491 kts 38°
2026-04-30 18:22 2.20075 -76.69487 36083 ft 492 kts 39°
2026-04-30 18:23 2.25285 -76.65044 36100 ft 492 kts 38°
2026-04-30 18:23 2.30466 -76.60637 36115 ft 492 kts 38°
2026-04-30 18:24 2.38326 -76.53935 36124 ft 493 kts 39°
2026-04-30 18:25 2.43542 -76.49477 36123 ft 493 kts 39°
2026-04-30 18:25 2.51370 -76.42804 36116 ft 493 kts 38°
2026-04-30 18:26 2.59195 -76.36123 36111 ft 493 kts 39°
2026-04-30 18:27 2.67013 -76.29444 36100 ft 492 kts 38°
2026-04-30 18:28 2.74844 -76.22787 36097 ft 493 kts 39°
2026-04-30 18:28 2.82665 -76.16108 36096 ft 493 kts 39°
2026-04-30 18:29 2.92864 -76.06919 36107 ft 494 kts 42°
2026-04-30 18:30 3.02708 -75.97409 36101 ft 494 kts 42°
2026-04-30 18:31 3.09386 -75.91084 36093 ft 494 kts 42°
2026-04-30 18:32 3.16870 -75.83987 36083 ft 495 kts 42°
2026-04-30 18:33 3.24343 -75.76867 36057 ft 495 kts 42°
2026-04-30 18:33 3.31831 -75.69747 36022 ft 494 kts 42°
2026-04-30 18:34 3.39318 -75.62646 35994 ft 494 kts 41°
2026-04-30 18:35 3.44310 -75.57903 35982 ft 494 kts 42°
2026-04-30 18:35 3.49290 -75.53160 35964 ft 494 kts 42°
2026-04-30 18:36 3.56767 -75.46049 35947 ft 494 kts 42°
2026-04-30 18:37 3.64274 -75.38901 35928 ft 494 kts 42°
2026-04-30 18:37 3.69251 -75.34163 35922 ft 494 kts 42°
2026-04-30 18:38 3.74229 -75.29432 35912 ft 493 kts 42°
2026-04-30 18:38 3.79196 -75.24703 35902 ft 493 kts 42°
2026-04-30 18:39 3.84164 -75.19973 35892 ft 492 kts 42°
2026-04-30 18:39 3.89118 -75.15249 35887 ft 492 kts 42°
2026-04-30 18:40 3.94075 -75.10528 35885 ft 491 kts 42°
2026-04-30 18:40 3.99027 -75.05812 35875 ft 491 kts 42°
2026-04-30 18:41 4.03983 -75.01092 35869 ft 492 kts 42°
2026-04-30 18:41 4.08933 -74.96373 35857 ft 491 kts 42°
2026-04-30 18:42 4.13890 -74.91651 35841 ft 491 kts 42°
2026-04-30 18:42 4.19379 -74.87668 35831 ft 487 kts 25°
2026-04-30 18:42 4.22481 -74.86342 35822 ft 483 kts 16°
2026-04-30 18:45 4.55395 -74.80565 35709 ft 478 kts
2026-04-30 18:45 4.58690 -74.80020 35460 ft 467 kts
2026-04-30 18:45 4.61871 -74.79489 35108 ft 460 kts
2026-04-30 18:46 4.65020 -74.78964 34682 ft 456 kts
2026-04-30 18:46 4.68134 -74.78447 34225 ft 453 kts
2026-04-30 18:46 4.71238 -74.77936 33787 ft 449 kts
2026-04-30 18:46 4.74280 -74.77436 33624 ft 437 kts
2026-04-30 18:47 4.77244 -74.76941 33504 ft 426 kts
2026-04-30 18:47 4.80144 -74.76632 33282 ft 414 kts 355°
2026-04-30 18:47 4.82932 -74.77079 33028 ft 401 kts 339°
2026-04-30 18:47 4.85418 -74.78236 32775 ft 389 kts 323°
2026-04-30 18:48 4.87468 -74.79947 32525 ft 380 kts 309°
2026-04-30 18:48 4.89004 -74.82062 32287 ft 372 kts 296°
2026-04-30 18:48 4.89968 -74.84431 32046 ft 364 kts 282°
2026-04-30 18:48 4.90345 -74.86911 31806 ft 357 kts 270°
2026-04-30 18:49 4.90140 -74.89366 31572 ft 351 kts 257°
2026-04-30 18:49 4.89394 -74.91667 31345 ft 345 kts 244°
2026-04-30 18:49 4.88168 -74.93711 31125 ft 341 kts 232°
2026-04-30 18:49 4.86540 -74.95415 30901 ft 337 kts 220°
2026-04-30 18:50 4.84601 -74.96703 30680 ft 334 kts 207°
2026-04-30 18:50 4.82442 -74.97531 30448 ft 331 kts 195°
2026-04-30 18:50 4.80176 -74.97873 30225 ft 330 kts 183°
2026-04-30 18:50 4.77893 -74.97811 29997 ft 327 kts 177°
2026-04-30 18:51 4.75637 -74.97564 29733 ft 324 kts 174°
2026-04-30 18:51 4.73415 -74.97224 29469 ft 321 kts 172°
2026-04-30 18:51 4.71226 -74.96857 29207 ft 318 kts 172°
2026-04-30 18:51 4.69052 -74.96492 28945 ft 315 kts 172°
2026-04-30 18:52 4.66900 -74.96145 28686 ft 312 kts 172°
2026-04-30 18:52 4.64737 -74.95812 28428 ft 309 kts 172°
2026-04-30 18:52 4.62629 -74.95431 28180 ft 307 kts 165°
2026-04-30 18:52 4.60638 -74.94696 27929 ft 305 kts 154°
2026-04-30 18:53 4.58843 -74.93584 27677 ft 303 kts 142°
2026-04-30 18:53 4.57320 -74.92142 27421 ft 301 kts 130°
2026-04-30 18:53 4.56127 -74.90434 27172 ft 299 kts 119°
2026-04-30 18:53 4.55305 -74.88530 26932 ft 297 kts 107°
2026-04-30 18:54 4.54879 -74.86508 26650 ft 297 kts 96°
2026-04-30 18:54 4.54861 -74.84443 26405 ft 297 kts 85°
2026-04-30 18:54 4.55252 -74.82411 26165 ft 297 kts 73°
2026-04-30 18:54 4.56032 -74.80496 25932 ft 298 kts 63°
2026-04-30 18:55 4.57177 -74.78766 25698 ft 300 kts 51°
2026-04-30 18:55 4.60404 -74.76137 25237 ft 301 kts 28°
2026-04-30 18:55 4.62344 -74.75355 25016 ft 301 kts 17°
2026-04-30 18:56 4.66511 -74.74991 24567 ft 303 kts 358°
2026-04-30 18:56 4.68609 -74.75200 24344 ft 303 kts 355°
2026-04-30 18:56 4.70685 -74.75504 24123 ft 301 kts 353°
2026-04-30 18:57 4.74716 -74.76166 23682 ft 289 kts 353°
2026-04-30 18:57 4.76697 -74.76483 23467 ft 287 kts 354°
2026-04-30 18:57 4.78681 -74.76672 23028 ft 283 kts
2026-04-30 18:58 4.82598 -74.75772 23293 ft 326 kts 15°
2026-04-30 18:58 4.84867 -74.75298 22766 ft 340 kts 14°
2026-04-30 18:58 4.87244 -74.74823 21870 ft 356 kts 14°
2026-04-30 18:59 4.92076 -74.73408 19918 ft 373 kts 36°
2026-04-30 19:00 4.94796 -74.66126 15406 ft 413 kts 103°
2026-04-30 19:00 4.93923 -74.63394 14477 ft 410 kts 112°
2026-04-30 19:00 4.91676 -74.58173 12551 ft 406 kts 113°
2026-04-30 19:01 4.89868 -74.52902 11147 ft 387 kts 107°
2026-04-30 19:01 4.89205 -74.50387 11027 ft 359 kts 105°
2026-04-30 19:02 4.88115 -74.45818 10801 ft 318 kts 105°
2026-04-30 19:02 4.87112 -74.41717 10633 ft 282 kts 105°
2026-04-30 19:03 4.86166 -74.38035 10464 ft 262 kts 106°
2026-04-30 19:03 4.85051 -74.35350 10514 ft 241 kts 126°
2026-04-30 19:04 4.83133 -74.32875 10535 ft 204 kts 127°
2026-04-30 19:04 4.81477 -74.30692 10585 ft 195 kts 127°
2026-04-30 19:05 4.79834 -74.28521 10620 ft 196 kts 126°
2026-04-30 19:05 4.78207 -74.26372 10602 ft 188 kts 127°
2026-04-30 19:06 4.76639 -74.24301 10254 ft 187 kts 128°
2026-04-30 19:06 4.75849 -74.23257 10032 ft 188 kts 128°
2026-04-30 19:06 4.74348 -74.21274 9599 ft 162 kts 127°
2026-04-30 19:07 4.73106 -74.19634 9146 ft 140 kts 128°
2026-04-30 19:07 4.72521 -74.18862 8922 ft 137 kts 128°
2026-04-30 19:08 4.71362 -74.17334 8538 ft 137 kts 128°
2026-04-30 19:08 4.70329 -74.15985 8363 ft 67 kts 128°
2026-04-30 19:08 4.70150 -74.15758 8362 ft 38 kts 128°
2026-04-30 19:09 4.69914 -74.15419 8365 ft 34 kts 137°
2026-04-30 19:09 4.69820 -74.15332 8365 ft 16 kts 135°
2026-04-30 19:09 4.69737 -74.15181 8364 ft 32 kts 116°
2026-04-30 19:10 4.69877 -74.14800 8365 ft 26 kts 39°
2026-04-30 19:10 4.70205 -74.14574 8366 ft 31 kts 32°
2026-04-30 19:11 4.70369 -74.14426 8367 ft 32 kts 54°
2026-04-30 19:11 4.70192 -74.14218 8368 ft 16 kts 202°
2026-04-30 19:11 4.70137 -74.14180 8368 ft 10 kts 128°
2026-04-30 19:12 4.70084 -74.14117 8367 ft 13 kts 130°
2026-04-30 19:12 4.70018 -74.14036 8368 ft 16 kts 129°
2026-04-30 19:12 4.69945 -74.13937 8368 ft 19 kts 124°
2026-04-30 19:13 4.69805 -74.13872 8367 ft 10 kts 217°
2026-04-30 19:13 4.69798 -74.13877 8367 ft 0 kts 217°